Location: Franzen
(48.6167°N, 15.3833°E)
Time: 18:34:30
(UTC+00:00)

A-11 Canister half - Pass Details

Date: 03 August 2021
Orbit: 1515 x 1685 km, 47.2° (Epoch: 19 September)

Event Time Altitude Azimuth Distance (km) Brightness Sun altitude
Rises 18:08:54 0° 267° (W) 4,827 13.0 2.8°
Reaches altitude 10° 18:11:58 10° 267° (W) 3,863 12.4 2.3°
Maximum altitude 18:21:56 84° 181° (S) 1,679 9.3 0.8°
Drops below altitude 10° 18:32:08 10° 95° (E) 3,949 10.6 -0.7°
Sets 18:35:19 0° 95° (E) 4,939 11.1 -1.2°
